Temp_Advection
nan nan nan nan nan nan nan nan nan nan nan nan nan nan nan nan nan nan nan nan nan nan nan nan nan nan nan nan nan nan nan nan nan nan nan nan nan nan nan nan nan nan nan
nan 0 -0 -0 0 -0 -0 -0 0 0 0 0 0 0 0 0 0 0 1 1 0 0 0 0 0 -0 0 -0 0 0 0 0 -0 0 -0 -1 -0 -0 -0 -0 -1 -1 nan
nan 0 0 -0 -0 -0 -0 0 1 -0 1 0 -0 0 0 1 1 1 0 0 -0 0 0 -0 -0 -0 0 0 0 0 -0 0 0 0 1 0 0 -0 -0 -0 -1 -1 nan
nan 0 -0 -1 -1 -1 0 1 -1 -0 0 0 0 0 0 1 1 0 0 0 0 0 -0 -0 -0 0 0 0 -0 0 -0 -0 -0 0 0 1 1 0 0 -0 -1 -1 nan
nan -1 -3 -2 -0 -0 -1 -1 1 1 -1 -0 0 1 1 1 1 0 0 0 0 -0 -0 -0 0 0 -0 0 0 0 0 0 -0 -0 -0 0 0 0 0 0 -0 -1 nan
nan -2 -1 -0 -1 -1 -0 1 1 -1 -0 0 1 2 2 1 -0 -0 0 0 0 0 0 0 -0 -0 -0 -0 -0 0 0 0 0 -0 -1 -0 -0 -0 -1 -0 -1 -1 nan
nan -1 -1 0 1 1 2 2 0 0 1 2 3 1 0 -1 -0 1 0 1 0 -0 0 0 -0 0 0 -0 -1 -0 -0 -0 -0 0 1 0 -0 -0 0 -1 -1 -1 nan
nan -1 0 2 3 4 3 1 1 2 3 1 0 -0 -0 -0 0 0 1 1 0 0 0 -0 0 0 0 -0 0 -0 -0 0 0 -0 -0 1 0 0 0 0 -0 -1 nan
nan 0 4 5 4 4 2 1 2 1 -0 -1 -1 1 0 -0 0 1 1 0 0 0 -0 -0 0 0 -0 -0 1 1 -0 -0 -0 0 0 -0 -0 0 0 0 -1 -1 nan
nan 2 3 3 1 2 -1 1 0 -2 -2 -0 -0 1 5 1 -0 0 0 0 0 0 0 0 -0 -0 0 0 0 1 0 -0 -0 0 0 0 -0 -0 0 1 -0 -1 nan
nan 1 1 0 2 1 -0 0 0 1 2 1 2 3 3 -0 -0 0 0 0 0 -0 -0 0 1 1 -0 0 0 -0 -0 0 -0 0 -0 -1 -0 -0 -0 0 0 0 nan
nan 2 2 2 3 2 1 1 2 3 2 2 2 2 1 0 0 0 0 0 0 1 0 0 -0 0 1 0 -0 -0 -0 -0 -1 -1 -1 -0 -0 -0 -0 -0 0 1 nan
nan 1 1 1 1 2 3 3 2 2 1 1 1 1 1 0 0 0 0 0 0 0 0 0 0 -0 -0 0 -0 -2 -1 -0 -1 -1 -1 -0 0 1 0 -1 -0 -1 nan
nan 0 1 0 1 0 1 1 1 1 0 0 0 -0 0 1 0 0 0 0 1 0 0 0 -1 -0 -0 -0 -0 -0 -1 -0 -1 -1 -1 -1 -1 -0 -0 -0 -0 -1 nan
nan 1 1 0 -0 -1 -1 0 1 0 0 0 -0 -0 -0 -0 -0 0 0 0 0 1 0 0 -0 -0 -0 -0 -0 -0 -0 -0 -0 -0 -1 -1 -1 -1 -1 -0 -0 -1 nan
nan 1 0 1 1 -0 -1 -1 0 0 0 0 0 -0 -0 -0 -0 0 0 0 0 -0 -0 -0 -0 -0 -0 -0 -0 0 0 0 -0 -0 -0 -0 -0 -1 -1 -0 -0 -1 nan
nan 1 2 1 0 1 1 -0 -0 0 0 0 0 0 0 0 0 0 0 0 0 -0 -0 -0 -0 -0 -0 0 0 0 0 1 1 0 0 0 -0 -0 -1 -1 -0 0 nan
nan 0 1 2 1 1 2 2 0 0 1 0 0 0 0 0 0 0 0 -0 -0 -0 -0 -0 -0 -0 -0 -0 -0 -0 -0 0 1 1 1 1 0 -0 -0 -0 -0 -0 nan
nan -0 -0 0 1 0 0 1 0 0 1 1 1 1 1 0 0 0 0 0 0 -0 -0 -0 -0 -0 -0 -0 -0 -0 0 0 0 0 1 1 1 0 0 -0 -0 0 nan
nan 0 -1 -1 0 0 -0 -0 -0 -0 0 0 0 0 0 0 -0 -0 0 0 0 -0 -0 -0 -0 -0 -0 -0 -0 -0 -0 -0 0 -0 0 1 1 1 0 0 -0 -0 nan
nan 1 1 -1 -1 -0 0 0 -0 -0 -0 -0 0 0 -0 0 -0 -0 -0 -0 0 -0 -0 -0 -0 -0 -0 -0 -0 -0 -0 -0 -0 -0 -0 0 2 1 1 0 0 0 nan
nan -1 0 -0 0 0 0 0 0 0 -0 -0 -0 0 0 0 0 -0 0 -0 -0 -0 -0 -0 -0 -0 -0 -0 -0 -0 -0 -0 -0 0 -1 -0 1 1 2 1 0 0 nan
nan -1 -0 0 0 0 -0 0 0 0 0 -0 -0 -0 0 0 -0 -0 -0 -0 -0 -0 -0 -0 -0 -0 -0 -0 -0 -0 -0 -0 0 0 0 -0 -0 0 1 1 1 1 nan
nan -1 -0 0 0 0 -0 -0 0 0 0 0 0 0 0 0 -0 -0 -0 -0 -0 -0 -0 -0 -0 -0 -0 0 -0 0 -0 0 -0 0 0 0 -0 0 -0 0 1 1 nan
nan -0 0 -0 -0 0 0 0 0 0 0 -0 -0 -0 -0 -0 -0 -0 0 0 0 0 0 0 -0 0 0 -0 0 0 0 -0 -0 -0 0 0 -0 -0 -0 -0 0 1 nan
nan nan nan nan nan nan nan nan nan nan nan nan nan nan nan nan nan nan nan nan nan nan nan nan nan nan nan nan nan nan nan nan nan nan nan nan nan nan nan nan nan nan nan
Wind_Speed
31 28 28 28 27 26 26 25 25 23 23 23 23 21 21 19 17 16 16 15 14 12 11 7 5 6 4 7 9 10 13 14 17 18 16 16 17 19 15 16 16 18 18
33 32 31 30 29 27 28 27 26 25 24 23 22 22 22 22 19 18 17 13 13 12 9 6 4 3 6 6 6 11 11 14 15 20 22 18 18 18 18 17 17 17 19
34 34 32 31 32 31 29 28 27 27 25 22 23 24 24 22 19 19 16 16 14 12 9 7 7 5 5 4 7 7 8 10 12 15 18 17 17 18 17 17 16 17 18
32 33 33 34 32 32 31 28 26 28 27 24 22 22 23 22 19 18 15 13 12 10 10 9 8 7 6 7 5 7 7 12 11 14 17 18 17 16 17 16 16 14 17
37 33 35 36 34 31 30 30 28 25 25 23 22 24 24 22 17 16 13 11 13 12 12 10 9 7 9 10 7 7 13 11 13 15 18 19 18 17 17 17 19 20 19
44 44 40 40 38 36 34 32 31 28 25 21 23 25 20 16 17 16 15 13 13 12 9 8 8 11 10 11 11 13 15 17 19 16 20 20 20 17 19 17 20 20 21
39 42 45 44 42 39 38 35 31 28 22 22 22 13 14 13 18 16 15 12 11 9 10 8 6 7 10 9 12 15 17 19 20 22 24 21 21 20 19 18 19 21 23
42 40 43 44 45 43 41 36 30 25 20 10 5 6 13 18 14 16 17 15 11 11 10 11 11 9 9 13 14 14 15 15 17 20 21 23 21 19 22 24 23 24 25
42 42 41 43 40 40 38 34 28 25 26 22 12 13 22 22 20 18 16 11 10 10 12 13 13 11 17 20 22 18 18 19 21 25 28 32 28 28 29 29 26 28 30
39 38 40 41 39 37 34 34 34 35 34 31 24 18 37 28 19 15 14 10 12 11 11 12 15 18 21 23 24 25 22 21 22 24 27 29 28 28 28 28 25 27 29
26 30 35 37 36 39 32 34 37 36 32 26 22 31 27 21 16 14 12 10 11 12 12 12 14 18 22 23 24 26 28 29 30 32 27 28 29 28 27 27 27 29 31
25 28 27 30 29 30 35 36 35 34 30 24 22 18 20 21 16 13 12 12 15 13 10 10 19 23 24 24 25 28 30 32 32 27 26 24 24 22 22 24 27 28 28
19 22 25 26 27 28 35 37 35 29 20 16 16 16 16 17 14 12 12 12 14 15 18 20 21 22 24 20 20 27 25 14 17 18 17 18 20 21 24 23 22 26 27
20 24 27 28 28 32 22 23 17 15 15 15 16 14 13 11 10 8 9 12 15 13 17 13 17 17 14 12 11 11 11 13 14 16 17 18 19 19 19 19 22 22 24
28 32 33 35 32 35 31 26 22 20 16 16 14 13 11 10 9 9 12 14 17 17 13 5 4 5 7 8 9 11 12 12 14 15 17 18 18 19 20 19 20 21 22
37 34 29 35 37 30 25 24 22 18 16 13 11 10 9 9 11 13 13 11 6 2 3 2 3 5 8 10 11 12 13 16 17 18 18 19 21 21 21 22 20 18 20
30 28 31 30 29 30 27 23 20 17 12 10 7 7 8 9 8 6 4 3 1 4 3 3 5 7 8 9 11 14 16 16 19 19 21 23 23 24 25 28 26 25 24
34 32 30 27 25 27 26 26 23 16 12 9 7 5 4 4 4 3 2 3 5 6 4 5 6 8 9 10 11 12 14 16 19 21 22 22 22 24 28 27 25 26 26
26 26 27 24 22 22 19 17 16 14 9 7 8 7 6 5 4 5 7 5 5 4 4 5 6 7 8 11 11 12 14 16 19 22 21 21 27 26 25 24 24 24 23
29 27 25 22 17 12 14 12 11 11 10 9 7 6 5 5 3 3 4 4 3 4 3 5 6 6 8 10 12 12 14 16 18 21 22 21 27 32 30 26 23 23 23
24 21 20 19 15 10 10 12 11 11 10 10 9 11 13 7 5 5 4 3 3 3 4 4 5 6 8 9 11 13 14 16 19 20 22 21 27 33 37 33 28 25 24
19 17 15 17 13 12 11 12 12 12 11 10 9 11 12 7 5 5 4 3 3 3 3 3 4 5 7 9 11 13 14 17 19 20 20 19 25 27 31 37 30 26 25
19 16 16 14 13 14 14 12 12 11 10 10 8 7 6 6 4 3 2 3 3 2 2 2 2 4 6 9 10 12 14 16 21 24 19 17 23 25 25 29 37 35 29
18 15 15 13 12 13 13 11 11 12 10 8 7 6 4 3 2 1 1 1 1 1 2 3 2 3 6 8 9 12 13 15 18 21 19 18 21 23 23 26 27 33 38
17 16 14 14 13 13 13 11 10 9 7 5 4 3 2 2 2 1 2 2 4 3 3 4 3 3 4 5 8 10 12 13 16 17 17 16 19 21 22 23 25 26 30
17 15 13 13 13 12 11 9 8 7 5 4 3 2 1 1 1 3 4 4 4 6 5 4 4 4 4 5 7 8 9 11 13 15 15 16 19 18 22 23 23 24 26
Wind_Direction
214 216 220 226 230 230 233 233 232 234 235 236 240 242 242 250 257 264 274 261 269 264 264 268 270 295 295 306 300 299 285 288 287 296 297 304 294 302 296 287 283 281 278
214 215 219 226 230 230 233 234 234 234 237 239 240 243 246 253 256 263 274 258 265 262 255 236 233 262 322 312 311 296 293 287 288 289 296 303 292 294 293 291 291 280 274
212 215 218 222 227 228 229 232 234 236 236 237 243 246 250 253 255 265 262 264 259 256 246 235 236 290 313 293 312 299 297 303 304 301 308 310 302 302 299 296 291 286 281
211 212 215 220 223 227 229 229 227 236 237 237 241 250 252 251 253 259 257 256 254 252 241 258 280 297 302 330 339 317 314 323 313 314 307 305 309 309 308 304 293 285 287
208 210 213 220 221 223 224 227 231 226 236 240 245 250 253 251 248 251 246 250 255 245 266 275 288 298 310 328 331 294 311 312 305 308 305 305 307 309 310 308 305 299 287
220 220 219 221 222 224 227 228 228 228 235 237 243 248 245 242 245 244 250 248 242 252 251 259 275 299 301 321 326 327 319 317 314 307 302 299 302 297 304 299 303 301 299
227 227 227 225 222 222 224 225 225 225 222 234 241 235 242 231 247 245 251 242 238 237 261 258 296 282 301 309 316 317 318 315 313 308 299 292 294 297 293 297 296 291 292
243 237 232 231 227 223 223 221 216 212 208 204 213 216 242 252 249 275 250 228 237 240 241 273 296 290 273 289 289 290 294 293 296 297 293 285 284 286 286 294 295 299 298
233 236 232 229 225 222 219 211 204 181 180 189 150 337 281 257 259 266 242 243 245 240 262 275 284 280 275 287 286 285 286 290 291 292 291 289 287 285 285 287 285 286 286
233 233 231 223 218 213 207 205 194 199 200 197 221 218 240 258 262 238 231 235 252 256 263 277 284 276 280 282 285 287 289 292 287 285 283 288 292 293 293 289 286 283 282
228 222 222 225 219 215 205 193 200 196 197 202 217 203 224 241 231 227 231 240 249 264 278 281 284 275 285 291 293 292 289 293 294 292 291 291 290 288 286 283 280 277 278
221 220 206 200 190 195 197 193 190 190 192 198 205 222 221 224 223 221 233 250 267 269 269 267 265 285 289 294 295 295 298 298 301 293 288 289 289 289 290 283 272 267 269
185 183 185 190 182 185 180 184 179 179 182 181 185 170 185 204 215 229 247 257 264 270 272 284 289 294 297 305 301 306 309 312 301 297 295 292 290 289 292 298 293 283 280
172 173 174 166 169 159 151 151 155 160 159 159 161 166 174 188 210 240 265 280 289 293 294 302 303 314 322 334 337 332 325 321 313 308 303 299 299 301 301 298 295 297 285
167 157 152 142 145 141 143 143 153 148 151 159 158 161 173 188 222 258 272 278 283 287 299 306 322 337 338 337 346 341 338 330 322 314 308 305 308 307 303 300 295 291 284
152 143 142 147 152 151 151 150 151 153 153 169 172 184 204 245 271 277 280 286 289 322 49 25 7 2 356 355 348 348 346 340 328 319 316 313 311 307 304 302 299 295 293
133 134 135 139 144 142 142 147 149 148 160 183 199 226 250 262 267 266 267 266 298 70 79 41 38 20 9 4 355 3 359 341 333 328 321 318 314 311 308 311 311 305 298
135 136 137 139 144 145 147 147 144 148 173 187 216 232 229 216 213 198 158 106 56 65 70 54 38 22 13 15 0 2 354 358 347 336 325 321 314 313 310 314 314 308 302
129 133 133 131 130 132 130 123 127 141 145 169 172 163 168 153 128 112 108 123 106 88 59 50 47 45 21 358 353 359 360 353 352 346 339 330 331 338 329 323 317 314 307
129 135 129 124 126 121 111 113 123 125 134 140 136 152 152 78 71 99 96 93 94 93 72 65 56 39 17 358 348 351 356 352 350 350 348 347 349 2 353 341 334 327 322
123 125 125 117 100 106 122 127 130 128 143 138 155 174 171 161 152 132 118 104 99 70 55 43 45 24 8 358 343 352 356 351 347 348 346 348 348 351 3 358 350 343 333
109 100 98 99 122 129 127 123 129 136 134 140 146 143 134 134 144 137 126 112 91 70 34 7 28 10 2 357 348 347 354 352 348 346 344 353 354 354 358 2 1 352 345
99 101 108 118 127 118 112 118 117 126 137 142 143 145 143 146 137 124 103 103 85 56 351 343 3 2 2 359 352 348 348 354 2 360 346 351 353 355 358 359 5 12 7
105 101 103 110 119 112 112 123 131 133 126 133 143 143 139 118 93 43 91 21 2 326 323 318 342 346 355 354 351 353 349 354 355 357 2 2 352 358 1 2 3 9 15
105 106 109 109 112 113 112 118 121 120 128 131 125 119 90 62 52 2 314 332 303 302 302 309 325 335 334 342 343 356 357 357 359 359 10 358 354 358 5 5 7 11 13
94 101 109 111 111 115 121 123 121 128 133 127 120 111 105 129 260 273 278 275 278 285 291 296 309 317 306 322 312 333 347 356 358 357 6 357 357 360 6 6 7 11 15
Height
1510 1514 1517 1520 1522 1524 1527 1528 1530 1532 1534 1537 1539 1541 1542 1543 1544 1544 1544 1543 1543 1542 1539 1539 1541 1539 1542 1542 1542 1540 1538 1536 1534 1532 1532 1530 1526 1523 1521 1519 1516 1515 1513
1502 1507 1511 1514 1516 1519 1521 1522 1525 1527 1530 1532 1534 1536 1538 1539 1540 1541 1541 1541 1540 1539 1539 1537 1537 1537 1536 1536 1537 1536 1535 1532 1528 1525 1524 1523 1521 1518 1516 1514 1513 1511 1509
1495 1500 1504 1506 1509 1512 1515 1518 1520 1523 1525 1528 1529 1531 1533 1535 1536 1537 1537 1536 1536 1536 1537 1536 1533 1531 1527 1528 1528 1529 1531 1529 1527 1524 1521 1519 1517 1514 1511 1509 1506 1507 1504
1488 1492 1495 1498 1501 1505 1509 1512 1515 1517 1520 1523 1526 1527 1528 1530 1532 1533 1534 1535 1535 1536 1535 1534 1531 1529 1528 1524 1522 1524 1525 1524 1523 1520 1518 1515 1513 1510 1507 1504 1501 1500 1499
1479 1483 1486 1489 1494 1498 1502 1505 1509 1512 1515 1519 1522 1523 1524 1526 1528 1529 1530 1532 1532 1531 1531 1531 1529 1527 1525 1522 1520 1520 1520 1521 1520 1517 1515 1512 1509 1507 1505 1503 1500 1495 1493
1468 1472 1477 1481 1486 1491 1495 1498 1502 1506 1511 1516 1518 1518 1521 1524 1525 1525 1527 1529 1528 1527 1529 1528 1526 1524 1523 1518 1519 1517 1517 1514 1513 1511 1511 1509 1506 1503 1502 1499 1497 1493 1489
1461 1466 1468 1471 1476 1481 1486 1490 1495 1501 1507 1511 1516 1520 1522 1521 1522 1523 1524 1526 1526 1526 1525 1525 1524 1525 1522 1520 1517 1515 1513 1511 1509 1507 1503 1504 1500 1500 1497 1492 1491 1488 1485
1449 1454 1460 1464 1468 1473 1477 1482 1488 1496 1504 1513 1520 1522 1523 1522 1522 1523 1521 1521 1521 1522 1521 1519 1519 1518 1517 1516 1514 1513 1511 1508 1506 1504 1501 1499 1496 1494 1491 1487 1484 1480 1478
1437 1440 1446 1453 1459 1464 1468 1474 1481 1488 1492 1499 1507 1524 1525 1520 1512 1515 1517 1519 1520 1517 1516 1514 1512 1511 1507 1507 1506 1504 1502 1501 1500 1496 1494 1491 1488 1486 1484 1481 1479 1476 1470
1429 1434 1437 1441 1447 1453 1460 1468 1471 1477 1482 1485 1483 1491 1503 1509 1510 1508 1510 1514 1515 1515 1511 1509 1506 1505 1504 1501 1500 1498 1495 1494 1492 1490 1487 1484 1481 1478 1476 1473 1472 1468 1465
1425 1429 1431 1435 1439 1444 1454 1462 1465 1469 1477 1482 1485 1489 1499 1499 1501 1503 1505 1507 1511 1511 1508 1507 1502 1500 1499 1497 1494 1492 1489 1486 1484 1479 1476 1475 1475 1471 1470 1468 1465 1462 1458
1420 1422 1429 1432 1436 1439 1448 1454 1460 1469 1473 1475 1484 1483 1489 1496 1497 1498 1500 1500 1504 1502 1500 1497 1493 1491 1490 1488 1486 1484 1482 1479 1477 1476 1470 1467 1467 1464 1462 1457 1454 1452 1450
1415 1420 1425 1433 1437 1441 1441 1449 1455 1464 1470 1473 1475 1482 1486 1491 1493 1493 1494 1496 1497 1495 1492 1489 1487 1485 1483 1482 1478 1475 1474 1471 1473 1471 1465 1462 1461 1457 1452 1448 1446 1443 1439
1413 1418 1423 1426 1435 1434 1447 1452 1462 1467 1471 1475 1478 1480 1486 1489 1490 1489 1490 1488 1486 1486 1484 1483 1479 1478 1477 1475 1474 1471 1469 1468 1466 1466 1462 1458 1455 1451 1447 1445 1441 1438 1435
1411 1416 1421 1423 1437 1431 1441 1449 1458 1465 1470 1475 1480 1484 1487 1488 1485 1484 1483 1482 1481 1480 1478 1479 1478 1476 1476 1472 1469 1469 1466 1464 1462 1460 1457 1453 1449 1445 1442 1440 1436 1432 1429
1411 1417 1421 1422 1429 1434 1442 1457 1461 1465 1469 1478 1477 1478 1480 1481 1480 1479 1478 1476 1476 1475 1476 1477 1474 1472 1472 1471 1470 1464 1463 1461 1460 1456 1453 1449 1444 1440 1436 1433 1430 1426 1421
1415 1423 1427 1428 1432 1431 1438 1449 1461 1466 1470 1476 1477 1477 1476 1476 1477 1477 1476 1474 1474 1474 1476 1475 1471 1470 1469 1468 1467 1462 1460 1461 1458 1455 1450 1445 1440 1436 1432 1426 1421 1417 1413
1417 1428 1434 1437 1442 1442 1446 1444 1443 1458 1472 1470 1474 1474 1476 1476 1477 1476 1474 1474 1476 1473 1474 1473 1472 1471 1471 1467 1468 1462 1462 1459 1457 1454 1449 1444 1439 1433 1427 1420 1414 1411 1407
1424 1432 1434 1445 1448 1449 1450 1451 1453 1461 1466 1468 1472 1472 1476 1476 1476 1475 1474 1476 1475 1475 1475 1473 1470 1468 1469 1474 1469 1464 1460 1458 1455 1453 1449 1442 1434 1427 1420 1415 1409 1406 1401
1429 1434 1435 1441 1450 1456 1450 1456 1459 1461 1467 1471 1472 1475 1477 1477 1479 1479 1477 1476 1476 1474 1474 1471 1470 1469 1468 1469 1470 1465 1459 1458 1454 1451 1447 1441 1433 1425 1417 1411 1405 1399 1395
1436 1438 1439 1437 1440 1455 1459 1460 1462 1463 1469 1468 1471 1473 1476 1479 1478 1476 1476 1476 1476 1475 1474 1473 1468 1468 1469 1468 1470 1465 1459 1457 1454 1449 1445 1440 1434 1424 1416 1408 1401 1394 1390
1437 1439 1440 1437 1452 1458 1460 1460 1462 1466 1467 1470 1472 1473 1474 1477 1477 1475 1474 1473 1472 1470 1472 1472 1468 1469 1468 1467 1467 1464 1459 1456 1452 1447 1443 1439 1434 1426 1418 1411 1401 1393 1387
1434 1442 1445 1451 1457 1457 1459 1464 1464 1468 1471 1474 1475 1475 1476 1475 1475 1473 1473 1470 1469 1470 1471 1470 1466 1468 1466 1466 1466 1463 1460 1455 1451 1446 1442 1438 1434 1428 1421 1415 1405 1394 1386
1441 1448 1450 1456 1461 1460 1462 1466 1468 1470 1472 1475 1476 1477 1476 1474 1473 1472 1471 1471 1468 1467 1467 1468 1463 1463 1462 1464 1464 1461 1458 1454 1450 1446 1442 1438 1435 1428 1422 1416 1410 1401 1391
1449 1451 1457 1458 1460 1461 1464 1469 1470 1471 1473 1474 1475 1474 1472 1472 1471 1472 1473 1469 1473 1469 1465 1466 1463 1459 1461 1461 1461 1459 1457 1454 1450 1446 1442 1439 1436 1430 1423 1417 1411 1405 1397
1453 1457 1461 1461 1461 1464 1467 1469 1469 1469 1471 1471 1470 1469 1468 1468 1469 1472 1474 1469 1469 1470 1465 1464 1461 1458 1459 1460 1459 1458 1455 1453 1450 1447 1443 1440 1435 1429 1424 1418 1413 1407 1400